When you browse on this site, cookies collect data to enhance your experience and personalize the content and advertising you see.
Visit our Privacy Policy to learn more. By continuing to use the site, you agree to this use of cookies and data.
  • In Portugal
  • List of Countries
  • For 7 days
  • Water Temperature
  • Weather Map
  • Weather Widgets
  • user-avatar
    Login

    Hourly Weather Otradnyy

    Today, 31 May, Sunday

    Time Temperature Precipitation Wind Pressure Humidity
    00:00 +13°C° 0.1 mm 2 mps 741 mmHg 93%
    01:00 +12°C° 0.1 mm 2 mps 740 mmHg 95%
    02:00 +12°C° 0 mm 2 mps 740 mmHg 94%
    03:00 +12°C° 0 mm 2 mps 740 mmHg 93%
    04:00 +10°C° 0 mm 3 mps 740 mmHg 86%
    05:00 +10°C° 0.1 mm 3 mps 740 mmHg 86%
    06:00 +9°C° 0.1 mm 3 mps 739 mmHg 85%
    07:00 +8°C° 0.1 mm 4 mps 739 mmHg 85%
    08:00 +8°C° 0 mm 4 mps 739 mmHg 81%
    09:00 +8°C° 0 mm 4 mps 739 mmHg 76%
    10:00 +8°C° 0 mm 4 mps 739 mmHg 72%
    11:00 +10°C° 0 mm 4 mps 739 mmHg 69%
    12:00 +10°C° 0 mm 4 mps 738 mmHg 67%
    13:00 +9°C° 0 mm 5 mps 738 mmHg 65%
    14:00 +9°C° 0.1 mm 5 mps 738 mmHg 68%
    15:00 +8°C° 0.1 mm 4 mps 738 mmHg 70%
    16:00 +8°C° 0.1 mm 4 mps 738 mmHg 73%
    17:00 +8°C° 0 mm 4 mps 738 mmHg 73%
    18:00 +8°C° 0 mm 4 mps 737 mmHg 73%
    19:00 +8°C° 0 mm 4 mps 737 mmHg 74%
    20:00 +7°C° 0.1 mm 4 mps 736 mmHg 75%
    21:00 +7°C° 0.1 mm 4 mps 736 mmHg 76%
    22:00 +6°C° 0.1 mm 4 mps 736 mmHg 78%
    23:00 +6°C° 2.6 mm 4 mps 735 mmHg 84%

    Tomorrow, 1 June, Monday

    Time Temperature Precipitation Wind Pressure Humidity
    00:00 +7°C° 2.6 mm 3 mps 734 mmHg 90%
    01:00 +5°C° 2.6 mm 3 mps 734 mmHg 96%
    02:00 +5°C° 2 mm 4 mps 734 mmHg 96%
    03:00 +5°C° 2 mm 4 mps 733 mmHg 96%
    04:00 +5°C° 2 mm 5 mps 733 mmHg 96%
    05:00 +5°C° 0.4 mm 4 mps 733 mmHg 97%
    06:00 +7°C° 0.4 mm 3 mps 733 mmHg 97%
    07:00 +7°C° 0.4 mm 2 mps 733 mmHg 97%
    08:00 +7°C° 0.4 mm 3 mps 733 mmHg 97%
    09:00 +7°C° 0.4 mm 3 mps 734 mmHg 97%
    10:00 +7°C° 0.4 mm 3 mps 734 mmHg 97%
    11:00 +7°C° 0.2 mm 2 mps 735 mmHg 97%
    12:00 +7°C° 0.2 mm 2 mps 735 mmHg 97%
    13:00 +7°C° 0.2 mm 2 mps 735 mmHg 97%
    14:00 +7°C° 0.3 mm 2 mps 736 mmHg 97%
    15:00 +7°C° 0.3 mm 3 mps 737 mmHg 97%
    16:00 +7°C° 0.3 mm 3 mps 737 mmHg 97%
    17:00 +5°C° 0.2 mm 3 mps 737 mmHg 97%
    18:00 +6°C° 0.2 mm 2 mps 738 mmHg 97%
    19:00 +6°C° 0.2 mm 2 mps 738 mmHg 97%
    20:00 +6°C° 0.1 mm 2 mps 738 mmHg 97%
    21:00 +6°C° 0.1 mm 2 mps 739 mmHg 98%
    22:00 +6°C° 0.1 mm 2 mps 739 mmHg 98%
    23:00 +6°C° 0 mm 2 mps 740 mmHg 98%

    Day after tomorrow, 2 June, Tuesday

    Time Temperature Precipitation Wind Pressure Humidity
    00:00 +7°C° 0 mm 1 mps 740 mmHg 98%
    01:00 +7°C° 0 mm 1 mps 740 mmHg 98%
    02:00 +6°C° 0 mm 2 mps 740 mmHg 98%
    03:00 +6°C° 0 mm 2 mps 741 mmHg 98%
    04:00 +5°C° 0 mm 2 mps 741 mmHg 98%
    05:00 +6°C° 0 mm 2 mps 741 mmHg 96%
    06:00 +6°C° 0 mm 2 mps 741 mmHg 94%
    07:00 +7°C° 0 mm 2 mps 741 mmHg 92%
    08:00 +8°C° 0.1 mm 2 mps 742 mmHg 83%
    09:00 +11°C° 0.1 mm 1 mps 742 mmHg 75%
    10:00 +13°C° 0.1 mm 1 mps 742 mmHg 66%
    11:00 +14°C° 0.1 mm 1 mps 742 mmHg 60%
    12:00 +16°C° 0.1 mm 1 mps 742 mmHg 54%
    13:00 +17°C° 0.1 mm 0 mps 742 mmHg 47%
    14:00 +18°C° 0 mm 1 mps 742 mmHg 47%
    15:00 +18°C° 0 mm 1 mps 742 mmHg 47%
    16:00 +16°C° 0 mm 1 mps 742 mmHg 47%
    17:00 +15°C° 0 mm 1 mps 742 mmHg 53%
    18:00 +15°C° 0 mm 1 mps 742 mmHg 60%
    19:00 +14°C° 0 mm 2 mps 742 mmHg 66%
    20:00 +12°C° 0 mm 1 mps 742 mmHg 72%
    21:00 +10°C° 0 mm 1 mps 743 mmHg 79%
    22:00 +8°C° 0 mm 1 mps 743 mmHg 86%
    23:00 +8°C° 0 mm 1 mps 743 mmHg 87%

    3 June, Wednesday

    Time Temperature Precipitation Wind Pressure Humidity
    00:00 +7°C° 0 mm 1 mps 743 mmHg 89%
    01:00 +7°C° 0 mm 1 mps 743 mmHg 91%
    02:00 +6°C° 0 mm 1 mps 743 mmHg 91%
    03:00 +6°C° 0 mm 1 mps 743 mmHg 91%
    04:00 +6°C° 0 mm 1 mps 743 mmHg 91%
    05:00 +8°C° 0 mm 1 mps 743 mmHg 81%
    06:00 +11°C° 0 mm 1 mps 743 mmHg 71%
    07:00 +13°C° 0 mm 1 mps 743 mmHg 62%
    08:00 +14°C° 0 mm 1 mps 743 mmHg 55%
    09:00 +16°C° 0 mm 1 mps 743 mmHg 49%
    10:00 +18°C° 0 mm 1 mps 743 mmHg 43%
    11:00 +18°C° 0 mm 1 mps 743 mmHg 42%
    12:00 +19°C° 0 mm 1 mps 743 mmHg 41%
    13:00 +19°C° 0 mm 1 mps 743 mmHg 40%
    14:00 +19°C° 0 mm 1 mps 743 mmHg 41%
    15:00 +19°C° 0 mm 1 mps 743 mmHg 43%
    16:00 +17°C° 0 mm 2 mps 743 mmHg 44%
    17:00 +16°C° 0 mm 2 mps 743 mmHg 52%
    18:00 +16°C° 0 mm 2 mps 743 mmHg 59%
    19:00 +15°C° 0 mm 2 mps 743 mmHg 66%
    20:00 +13°C° 0 mm 2 mps 743 mmHg 74%
    21:00 +11°C° 0 mm 1 mps 743 mmHg 82%
    22:00 +9°C° 0 mm 1 mps 744 mmHg 90%
    23:00 +8°C° 0 mm 1 mps 744 mmHg 91%

    4 June, Thursday

    Time Temperature Precipitation Wind Pressure Humidity
    00:00 +8°C° 0 mm 1 mps 744 mmHg 92%
    01:00 +7°C° 0 mm 1 mps 744 mmHg 93%
    02:00 +7°C° 0 mm 1 mps 744 mmHg 93%
    03:00 +7°C° 0 mm 1 mps 745 mmHg 93%
    04:00 +6°C° 0 mm 1 mps 745 mmHg 93%
    05:00 +9°C° 0 mm 1 mps 745 mmHg 84%
    06:00 +11°C° 0 mm 1 mps 745 mmHg 76%
    07:00 +13°C° 0 mm 1 mps 745 mmHg 67%
    08:00 +14°C° 0 mm 1 mps 745 mmHg 60%
    09:00 +16°C° 0 mm 2 mps 745 mmHg 53%
    10:00 +17°C° 0 mm 2 mps 745 mmHg 46%
    11:00 +18°C° 0 mm 2 mps 745 mmHg 43%
    12:00 +19°C° 0 mm 2 mps 745 mmHg 40%
    13:00 +20°C° 0 mm 2 mps 745 mmHg 37%
    14:00 +20°C° 0 mm 2 mps 745 mmHg 37%
    15:00 +20°C° 0 mm 2 mps 744 mmHg 37%
    16:00 +20°C° 0 mm 2 mps 744 mmHg 37%
    17:00 +19°C° 0 mm 2 mps 744 mmHg 44%
    18:00 +19°C° 0 mm 1 mps 744 mmHg 51%
    19:00 +18°C° 0 mm 1 mps 744 mmHg 59%
    20:00 +15°C° 0 mm 1 mps 745 mmHg 64%
    21:00 +12°C° 0 mm 1 mps 745 mmHg 69%
    22:00 +9°C° 0 mm 0 mps 745 mmHg 74%
    23:00 +9°C° 0 mm 0 mps 745 mmHg 75%

    5 June, Friday

    Time Temperature Precipitation Wind Pressure Humidity
    00:00 +8°C° 0 mm 0 mps 745 mmHg 76%
    01:00 +7°C° 0 mm 0 mps 746 mmHg 77%
    02:00 +7°C° 0 mm 0 mps 746 mmHg 77%
    03:00 +7°C° 0 mm 0 mps 746 mmHg 77%
    04:00 +7°C° 0 mm 0 mps 747 mmHg 77%
    05:00 +10°C° 0 mm 0 mps 747 mmHg 70%
    06:00 +13°C° 0 mm 0 mps 747 mmHg 62%
    07:00 +15°C° 0 mm 0 mps 747 mmHg 55%
    08:00 +17°C° 0 mm 0 mps 747 mmHg 49%
    09:00 +20°C° 0 mm 1 mps 747 mmHg 43%
    10:00 +21°C° 0 mm 1 mps 747 mmHg 38%
    11:00 +22°C° 0 mm 1 mps 747 mmHg 36%
    12:00 +21°C° 0 mm 2 mps 747 mmHg 34%
    13:00 +23°C° 0 mm 2 mps 747 mmHg 33%
    14:00 +23°C° 0 mm 2 mps 747 mmHg 33%
    15:00 +23°C° 0 mm 2 mps 747 mmHg 33%
    16:00 +23°C° 0 mm 2 mps 746 mmHg 34%
    17:00 +21°C° 0 mm 2 mps 746 mmHg 41%
    18:00 +20°C° 0 mm 2 mps 746 mmHg 49%
    19:00 +19°C° 0 mm 2 mps 746 mmHg 56%
    20:00 +18°C° 0 mm 1 mps 746 mmHg 59%
    21:00 +15°C° 0 mm 1 mps 747 mmHg 62%
    22:00 +13°C° 0 mm 1 mps 747 mmHg 66%
    23:00 +12°C° 0 mm 1 mps 747 mmHg 70%
    Show more